Location: Darlington Observatory
(36.4817°N, 105.8156°W)
Time: 08:02:29
(UTC-07:00)

NOSS 3-3 (A) - Visible Passes

Search period start: 23 November 2017 00:00
Search period end: 03 December 2017 00:00
Orbit: 900 x 1313 km, 63.4° (Epoch: 12 November)

Date Brightness Start Highest point End Pass type
(mag) Time Alt. Az. Time Alt. Az. Time Alt. Az.
23 Nov 6.9 05:11:19 10° SE 05:14:59 17° ESE 05:18:46 10° ENE visible
24 Nov 4.3 06:14:21 10° SSW 06:20:20 73° ESE 06:26:49 10° NE visible
24 Nov 7.7 17:33:31 10° WNW 17:37:06 14° WSW 17:40:45 10° SW visible
25 Nov 5.3 05:30:13 10° S 05:35:49 42° ESE 05:41:49 10° NE visible
26 Nov 6.2 04:46:46 10° SSE 04:51:27 24° ESE 04:56:23 10° ENE visible
27 Nov 6.8 04:04:38 10° SE 04:07:12 13° ESE 04:09:50 10° E visible
27 Nov 3.9 05:51:00 10° SSW 05:57:02 83° WNW 06:03:36 10° NNE visible
28 Nov 4.5 05:06:32 10° SSW 05:12:25 59° ESE 05:18:46 10° NE visible
29 Nov 5.4 04:22:38 10° S 04:27:58 34° ESE 04:33:37 10° NE visible
29 Nov 4.5 06:13:03 10° WSW 06:18:42 38° NW 06:24:49 10° NNE visible
30 Nov 6.2 03:39:33 10° SSE 03:43:39 19° ESE 03:47:54 10° ENE visible
30 Nov 3.9 05:27:49 10° SW 05:33:48 61° NW 05:40:19 10° NNE visible
01 Dec 3.9 04:44:52 21° SSW 04:49:05 82° ESE 04:55:36 10° NNE visible
02 Dec 4.7 04:03:40 45° SE 04:04:32 48° ESE 04:10:40 10° NE visible
02 Dec 4.8 05:51:14 14° W 05:55:38 29° NW 06:01:21 10° NNE visible
